Location: LDNL
(36.4545°S, 141.6685°E)
Time: 07:03:05
(UTC+11:00)

Courier 1B - All Passes

Search period start: 26 January 2022 00:00
Search period end: 05 February 2022 00:00
Orbit: 962 x 1209 km, 28.3° (Epoch: 25 January)

Date Brightness Start Highest point End Pass type
(mag) Time Alt. Az. Time Alt. Az. Time Alt. Az.
26 Jan - 08:12:26 10° NW 08:17:43 26° NNE 08:22:58 10° ENE daylight
26 Jan - 10:05:05 10° WNW 10:11:06 40° N 10:17:10 10° ENE daylight
26 Jan - 11:58:41 10° WNW 12:04:36 37° N 12:10:42 10° NE daylight
26 Jan - 13:53:13 10° WNW 13:57:58 21° NNW 14:02:53 10° NNE daylight
27 Jan - 07:19:18 10° NNW 07:24:10 22° NNE 07:28:57 10° ENE daylight
27 Jan - 09:11:33 10° WNW 09:17:29 38° N 09:23:26 10° ENE daylight
27 Jan - 11:05:00 10° WNW 11:10:59 40° N 11:17:04 10° ENE daylight
27 Jan - 12:59:11 10° WNW 13:04:23 25° NNW 13:09:43 10° NNE daylight
28 Jan - 06:26:24 10° NNW 06:30:36 17° NNE 06:34:43 10° ENE daylight
28 Jan - 08:18:01 10° NW 08:23:54 34° NNE 08:29:41 10° ENE daylight
28 Jan - 10:11:19 10° WNW 10:17:22 41° N 10:23:27 10° ENE daylight
28 Jan - 12:05:18 10° WNW 12:10:48 29° NNW 12:16:25 10° NE daylight
28 Jan - 14:01:23 10° NW 14:04:02 13° NNW 14:06:43 10° N daylight
29 Jan - 05:33:57 10° N 05:37:02 13° NNE 05:40:05 10° NE visible
29 Jan - 07:24:34 10° NW 07:30:18 30° NNE 07:35:52 10° ENE daylight
29 Jan - 09:17:39 10° WNW 09:23:45 41° N 09:29:48 10° ENE daylight
29 Jan - 11:11:29 10° WNW 11:17:13 33° NNW 11:23:01 10° NE daylight
29 Jan - 13:06:35 10° WNW 13:10:29 16° NNW 13:14:27 10° NNE daylight
30 Jan - 06:31:12 10° NW 06:36:42 26° NNE 06:42:01 10° ENE daylight
30 Jan - 08:23:59 10° WNW 08:30:08 40° N 08:36:09 10° ENE daylight
30 Jan - 10:17:41 10° WNW 10:23:37 37° N 10:29:32 10° NE daylight
30 Jan - 12:12:17 10° WNW 12:16:56 21° NNW 12:21:38 10° NNE daylight
31 Jan - 05:38:00 10° NNW 05:43:06 22° NNE 05:48:02 10° ENE visible
31 Jan - 07:30:20 10° WNW 07:36:30 38° N 07:42:29 10° ENE daylight
31 Jan - 09:23:55 10° WNW 09:30:01 40° N 09:36:01 10° ENE daylight
31 Jan - 11:18:12 10° WNW 11:23:23 25° NNW 11:28:35 10° NE daylight
01 Feb - 04:45:01 10° NNW 04:49:29 18° NNE 04:53:49 10° ENE visible
01 Feb - 06:36:43 10° NW 06:42:52 34° NNE 06:48:45 10° ENE daylight
01 Feb - 08:30:08 10° WNW 08:36:23 42° N 08:42:28 10° ENE daylight
01 Feb - 10:24:14 10° WNW 10:29:49 30° NNW 10:35:21 10° NE daylight
01 Feb - 12:20:19 10° NW 12:22:58 13° NNW 12:25:38 10° N daylight
02 Feb - 03:52:28 10° N 03:55:52 14° NNE 03:59:11 10° NE visible
02 Feb - 05:43:10 10° NW 05:49:14 31° NNE 05:55:00 10° ENE visible
02 Feb - 07:36:22 10° WNW 07:42:45 42° N 07:48:52 10° ENE daylight
02 Feb - 09:30:20 10° WNW 09:36:15 34° NNW 09:42:01 10° NE daylight
02 Feb - 11:25:29 10° WNW 11:29:27 17° NNW 11:33:26 10° NNE daylight
03 Feb - 03:01:43 10° NNE 03:02:14 10° NNE 03:02:44 10° NNE visible
03 Feb - 04:49:44 10° NW 04:55:33 26° NNE 05:01:09 10° ENE visible
03 Feb - 06:42:36 10° WNW 06:49:05 41° N 06:55:16 10° ENE daylight
03 Feb - 08:36:27 10° WNW 08:42:38 38° N 08:48:37 10° ENE daylight
03 Feb - 10:31:08 10° WNW 10:35:56 21° NNW 10:40:41 10° NNE daylight
04 Feb - 03:56:27 10° NNW 04:01:54 22° NNE 04:07:08 10° ENE visible
04 Feb - 05:48:52 10° WNW 05:55:24 39° N 06:01:37 10° ENE visible
04 Feb - 07:42:34 10° WNW 07:49:01 41° N 07:55:08 10° ENE daylight
04 Feb - 09:36:59 10° WNW 09:42:24 26° NNW 09:47:41 10° NE daylight
